Location: Gisborne
(38.6530°S, 178.0040°E)
Time: 18:03:56
(UTC+13:00)

Cosmos 2219 Rocket - Pass Details

Date: 24 January 2019
Orbit: 829 x 845 km, 71.0° (Epoch: 14 October)

Event Time Altitude Azimuth Distance (km) Brightness Sun altitude
Exits shadow 23:37:55 82° 331° (NNW) 863 2.1 -27.4°
Maximum altitude 23:38:11 89° 254° (WSW) 857 2.1 -27.4°
Drops below altitude 10° 23:43:57 10° 158° (SSE) 2,495 5.1 -27.9°
Sets 23:46:25 0° 157° (SSE) 3,438 5.9 -28.1°
